Culdrose, United Kingdom

2:38 PM BST on June 24, 2017 (GMT +0100)
Culdrose Navy

Weather History for EGDR - February, 2013

Change the Weather History Date:

Tuesday, February 5, 2013

  Actual Average Record
Temperature  
Mean Temperature 40 °F -  
Max Temperature 46 °F 46 °F 53 °F (2008)
Min Temperature 35 °F 38 °F 28 °F (2015)
Degree Days  
Heating Degree Days 24    
Moisture  
Dew Point 37 °F    
Average Humidity 78    
Maximum Humidity 93    
Minimum Humidity 60    
Precipitation  
Precipitation 0.00 in - - ()
Sea Level Pressure  
Sea Level Pressure 29.77 in    
Wind  
Wind Speed 23 mph ()    
Max Wind Speed 31 mph    
Max Gust Speed 48 mph    
Visibility 6.0 miles    
Events Rain , Snow , Hail    
Averages and records for this station are not official NWS values.
T = Trace of Precipitation, MM = Missing Value Source: Averaged Metar Reports

Daily Weather History Graph

Daily Weather History Graph

Search for Another Location

Airport or City:

Trip Planner

Search our weather history database for the weather conditions in past years. The results will help you decide how hot, cold, wet, or windy it might be!

Date:

Astronomy

Feb. 05, 2013 Rise Set
Actual Time 7:48 AM GMT 5:22 PM GMT
Civil Twilight 7:14 AM GMT 5:56 PM GMT
Nautical Twilight 6:35 AM GMT 6:35 PM GMT
Astronomical Twilight 5:57 AM GMT 7:12 PM GMT
Moon 3:26 AM GMT (2/5) 12:14 PM GMT (2/5)
Length of Visible Light 10h 42m
Length of Day
9h 33m
Waning Crescent, 29% of the Moon is Illuminated
Feb 5
Waning Crescent
Feb 10
New
Feb 17
First Quarter
Feb 25
Full
Mar 4
Last Quarter

Hourly Weather History & Observations

Time (GMT) Temp. Windchill Dew Point Humidity Pressure Visibility Wind Dir Wind Speed Gust Speed Precip Events Conditions
12:50 AM 42.8 °F 32.1 °F 41.0 °F 93% 29.92 in 6.2 mi WNW 31.1 mph 46.0 mph N/A Rain Light Rain Showers
1:50 AM 41.0 °F 29.7 °F 39.2 °F 93% 29.92 in 3.7 mi WNW 31.1 mph - N/A Rain Light Rain Showers
2:50 AM 42 °F - 35 °F 68% 29.91 in 5 mi NW 25.3 mph - - Rain Light Rain Showers
2:50 AM 42.8 °F 33.1 °F 35.6 °F 76% 29.89 in 5.0 mi NW 25.3 mph 43.7 mph N/A   Partly Cloudy
3:50 AM 39.2 °F 29.0 °F 35.6 °F 87% 29.86 in 5.0 mi WNW 21.9 mph 39.1 mph N/A   Partly Cloudy
4:50 AM 39.2 °F 29.0 °F 35.6 °F 87% 29.86 in 5.0 mi NW 21.9 mph 40.3 mph N/A   Mostly Cloudy
5:50 AM 40 °F - 34 °F 72% 29.85 in 5 mi WNW 25.3 mph - - Rain Light Rain Showers
5:50 AM 39.2 °F 28.3 °F 33.8 °F 81% 29.83 in 5.0 mi WNW 25.3 mph 44.9 mph N/A Rain Light Rain Showers
6:50 AM 39.2 °F 29.0 °F 33.8 °F 81% 29.80 in 6.2 mi WNW 21.9 mph 38.0 mph N/A   Scattered Clouds
7:50 AM 41.0 °F 30.2 °F 32.0 °F 70% 29.80 in 6.2 mi WNW 27.6 mph - N/A   Mostly Cloudy
8:50 AM 35 °F - 32 °F 86% 29.83 in 9 mi NW 21.9 mph - - Snow Light Snow Showers
8:50 AM 35.6 °F 24.2 °F 32.0 °F 87% 29.80 in 6.2 mi NW 21.9 mph - N/A   Haze
9:50 AM 37.4 °F 26.1 °F 33.8 °F 87% 29.77 in 6.2 mi WNW 24.2 mph - N/A   Scattered Clouds
10:50 AM 41.0 °F 32.2 °F 33.8 °F 76% 29.77 in 6.2 mi WNW 18.4 mph 31.1 mph N/A   Haze
11:50 AM 42 °F - 33 °F 60% 29.79 in 11 mi NW 25.3 mph - - Hail Light Hail Showers
11:50 AM 42.8 °F 33.1 °F 32.0 °F 66% 29.77 in 6.2 mi NW 25.3 mph 47.2 mph N/A   Haze
12:50 PM 44.6 °F 35.7 °F 33.8 °F 66% 29.74 in 6.2 mi WNW 24.2 mph 38.0 mph N/A   Partly Cloudy
1:50 PM 44.6 °F 35.7 °F 35.6 °F 71% 29.74 in 6.2 mi WNW 24.2 mph 40.3 mph N/A   Scattered Clouds
2:50 PM 43 °F - 36 °F 70% 29.73 in 12 mi WNW 24.2 mph - -   Partly Cloudy
2:50 PM 42.8 °F 33.3 °F 37.4 °F 81% 29.71 in 6.2 mi WNW 24.2 mph 39.1 mph N/A   Scattered Clouds
3:50 PM 44.6 °F 34.7 °F 37.4 °F 76% 29.71 in 6.2 mi NW 29.9 mph - N/A   Partly Cloudy
4:50 PM 44.6 °F 34.7 °F 41.0 °F 87% 29.68 in 2.5 mi WNW 29.9 mph 42.6 mph N/A Rain Rain Showers
5:50 PM 46 °F - 40 °F 72% 29.69 in 4 mi NW 27.6 mph - - Rain Light Rain Showers
5:50 PM 46.4 °F 37.5 °F 39.2 °F 76% 29.68 in 3.7 mi NW 27.6 mph 48.3 mph N/A   Mostly Cloudy
6:50 PM 44.6 °F 35.5 °F 41.0 °F 87% 29.68 in 3.7 mi NW 25.3 mph 42.6 mph N/A   Overcast
7:50 PM 46.4 °F 37.9 °F 41.0 °F 81% 29.68 in 3.1 mi NW 25.3 mph 48.3 mph N/A Rain Light Rain Showers
8:50 PM 46 °F - 40 °F 74% 29.72 in 6 mi NW 25.3 mph - - Rain Light Rain Showers
8:50 PM 46.4 °F 37.9 °F 41.0 °F 81% 29.71 in 6.2 mi NW 25.3 mph 40.3 mph N/A   Mostly Cloudy
9:50 PM 46.4 °F 37.4 °F 41.0 °F 81% 29.71 in 6.2 mi NW 28.8 mph 40.3 mph N/A   Scattered Clouds
10:50 PM 46.4 °F 38.1 °F 39.2 °F 76% 29.71 in 6.2 mi NW 24.2 mph 41.4 mph N/A   Scattered Clouds
11:50 PM 45 °F - 37 °F 64% 29.74 in 9 mi NNW 26.5 mph - -   Mostly Cloudy
11:50 PM 44.6 °F 35.3 °F 37.4 °F 76% 29.71 in 6.2 mi NNW 26.5 mph 47.2 mph N/A   Scattered Clouds